Location: Brachstadt
(48.6975°N, 10.6755°E)
Time: 03:02:42
(UTC+00:00)

Cosmos 1626 - Pass Details

Date: 18 September 2020
Orbit: 490 x 495 km, 82.5° (Epoch: 24 October)

Event Time Altitude Azimuth Distance (km) Brightness Sun altitude
Rises 18:38:07 0° 7° (N) 2,590 5.9 -13.0°
Reaches altitude 10° 18:41:12 10° 35° (NE) 1,700 4.7 -13.5°
Enters shadow 18:42:48 13° 60° (ENE) 1,497 4.2 -13.7°
